Preview of NWS' New Version of Forecast
This preview is not operational and should not be used for support decisions.
Latest weather observations around

College Park Airport (KCGS)

Using English Units (Switch to International System of Units)
Date/ Time (EST) Wind (mph) Vis. (mi) Weather Sky Cond. Temp (°F) Rel. Humidity Wind Chill (°F) Heat Index (°F) Pressure Precip. (in)
Air Dwpt 6 hour Altimeter (inHg) Sea level (inHg) 1 hr 3 hr 6 hr
Max Min
Jan 21 04:23 WSW 15   Clear CLR 13 -6     41% -3   30.15        
Jan 21 04:03 WSW 17   Clear CLR 13 -6     41% -4   30.13        
Jan 21 03:43 WSW 15   Clear CLR 13 -7     39% -3   30.12        
Jan 21 03:23 WSW 17 10 Clear CLR 13 -8     38% -3   30.12        
Jan 21 03:03   10 Clear CLR 13 -7     40%     30.11        
Jan 21 02:43 SW 14   Clear CLR 14 -6     41% -1   30.11        
Jan 21 02:23 WSW 15 10 Clear CLR 14 -6     41% -1   30.11        
Jan 21 02:03 SW 16   Clear CLR 14 -5     42% -2   30.09        
Jan 21 01:43 WSW 15 10 Clear CLR 15 -5     41% -1   30.09        
Jan 21 01:23 WSW 13 10 Clear CLR 15 -5     41% 1   30.09        
Jan 21 01:03 WSW 9 10 Clear CLR 15 -5     40% 3   30.07        
Jan 21 00:43 SW 14 10 Clear CLR 15 -5     39% 0   30.07        
Jan 21 00:23 WSW 10 10 Clear CLR 15 -5     38% 3   30.06        
Jan 21 00:03 WSW 13 10 Clear CLR 16 -6     37% 2   30.05        
Jan 20 23:43 WSW 10 10 Clear CLR 16 -8     33% 4   30.04        
Jan 20 23:23 WSW 16 10 Clear CLR 17 -5     36% 2   30.03        
Jan 20 23:03 WSW 16   Clear CLR 18 -6     35% 3   30        
Jan 20 22:43     Clear CLR 18 -6     33%     30        
Jan 20 22:23   10 Clear CLR 19 -6     32%     29.99        
Jan 20 22:03   10 Clear CLR 19 -6     32%     29.97        
Jan 20 21:43 NW 17 10 Clear CLR 20 -6     31% 5   29.96        
Jan 20 21:23 NW 13 10 Clear CLR 21 -1     37% 9   29.94        
Jan 20 21:03 NW 20 10 Clear and Windy CLR 21 -2     35% 6   29.92        
Jan 20 20:43 WNW 14 10 Clear CLR 22 -2     34% 9   29.91        
Jan 20 20:23 WNW 18 10 Clear CLR 22 -2     34% 8   29.89        
Jan 20 20:03 WNW 24 10 Clear and Windy CLR 23 0     37% 6   29.89        
Jan 20 19:43 WNW 21 10 Clear and Windy CLR 23 1     38% 8   29.88        
Jan 20 19:23 NW 17 10 Clear CLR 23 2     39% 10   29.87        
Jan 20 19:03 NW 20 10 Clear and Windy CLR 24 2     39% 9   29.85        
Jan 20 18:43 NW 20 10 Clear and Windy CLR 25 3     39% 10   29.84        
Jan 20 18:23 WNW 21 10 Clear and Windy CLR 25 6     43% 11   29.83        
Jan 20 18:03 WNW 24 10 Clear and Windy CLR 26 6     42% 10   29.81        
Jan 20 17:43 NW 14 10 Clear CLR 26 8     45% 15   29.79        
Jan 20 17:23 NW 13 10 Clear CLR 27 9     46% 16   29.77        
Jan 20 17:03 WNW 17 10 Clear CLR 27 10     47% 15   29.75        
Jan 20 16:43 NW 18 10 Clear CLR 29 11     48% 16   29.73        
Jan 20 16:23 NW 17 10 Partly Cloudy SCT045 30 13     48% 18   29.72        
Jan 20 16:03 WNW 14 10 Clear CLR 30 13     49% 20   29.7        
Jan 20 15:43 NW 21 10 Clear and Windy CLR 31 15     50% 19   29.68        
Jan 20 15:23 NW 20 10 Clear and Windy CLR 32 16     50% 20   29.66        
Jan 20 15:03 NW 16 10 Clear CLR 32 16     51% 21   29.64        
Jan 20 14:43 NW 16 10 Clear CLR 32 17     52% 22   29.63        
Jan 20 14:23 NW 15 10 Clear CLR 33 17     52% 23   29.62        
Jan 20 14:03 WNW 21 10 Clear and Windy CLR 33 17     51% 21   29.6        
Jan 20 13:43 NW 20 10 Clear and Windy CLR 33 18     53% 22   29.59        
Jan 20 13:23 WNW 18 10 Partly Cloudy SCT036 SCT120 33 19     57% 22   29.58        
Jan 20 13:03 NW 21 10 Mostly Cloudy and Windy BKN036 BKN110 33 19     57% 21   29.57        
Jan 20 12:43 NW 20 10 Mostly Cloudy and Windy BKN036 BKN120 34 21     59% 23   29.55        
Jan 20 12:23 WNW 21 10 Mostly Cloudy and Windy BKN034 BKN120 36 23     60% 25   29.54        
Jan 20 12:03 NW 22 10 Partly Cloudy and Windy SCT034 SCT120 37 25     61% 26   29.53        
Jan 20 11:43 NW 22 10 Mostly Cloudy and Windy BKN032 BKN120 36 24     62% 25   29.52        
Jan 20 11:23 WNW 21 10 Cloudy and Windy OVC032 37 26     65% 26   29.52        
Jan 20 11:03 NW 16 10 Cloudy OVC026 38 29     69% 30   29.5        
Jan 20 10:43 W 15 10 Cloudy OVC023 40 31     72% 31   29.48        
Jan 20 10:23 WNW 10 10 Cloudy OVC026 40 34     77% 34   29.46        
Jan 20 10:03 W 14 10 Cloudy BKN030 OVC100 41 34     78% 33   29.45        
Jan 20 09:43 WNW 11 10 Cloudy SCT080 OVC100 40 35     80% 34   29.43        
Jan 20 09:23 WNW 15 10 Cloudy SCT013 SCT040 OVC080 40 35     83% 32   29.4        
Jan 20 09:03 WNW 14 10 Cloudy SCT013 BKN023 OVC080 40 36     86% 32   29.39        
Jan 20 08:43 WNW 10 10 Cloudy SCT012 BKN020 OVC024 40 38     90% 34   29.36        
Jan 20 08:23 WNW 9 10 Cloudy OVC012 42 40     93% 36   29.34        
Jan 20 08:03 Calm 10 Cloudy OVC010 42 40     95%     29.32        
Jan 20 07:43 Calm 7 Cloudy OVC010 42 40     96%     29.32        
Jan 20 07:23 Calm 5 Cloudy BKN003 OVC008 42 41     98%     29.32        
Jan 20 07:03 Calm 3 Cloudy OVC003 41 40     97%     29.29        
Jan 20 06:43 Calm 5 Cloudy OVC003 42 41     97%     29.31        
Jan 20 06:23 WNW 6 5 Cloudy OVC003 42 41     97% 38   29.31        
Jan 20 06:03 Calm 4 Cloudy OVC003 42 42     98%     29.3        
Jan 20 05:43 Calm 4 Cloudy OVC003 43 42     97%     29.32        
Jan 20 05:23 Calm 7 Cloudy OVC005 44 43     97%     29.35        
Jan 20 05:03 W 6 10 Cloudy SCT005 OVC013 48 46     95% 45   29.34        
Jan 20 04:43 Calm 10 Mostly Cloudy BKN013 BKN049 BKN120 49 48     97%     29.34        
Jan 20 04:23 Calm 10 Mostly Cloudy SCT016 SCT049 BKN085 50 49     97%     29.35        
Jan 20 04:03 ESE 8 3 Cloudy SCT011 BKN017 OVC080 44 44     97% 40   29.34        
Jan 20 03:43 Calm 10 Cloudy BKN007 OVC011 45 45     97%     29.4        
Jan 20 03:23 S 3 10 Cloudy OVC003 45 45     98% 44   29.43        
Jan 20 03:03 ESE 8 7 Cloudy OVC003 43 42     97% 38   29.41        
Jan 20 02:43 Calm 5 Cloudy OVC003 40 39     97%     29.47        
Jan 20 02:23 Calm 5 Cloudy OVC003 38 38     98%     29.5        
Jan 20 02:03 Calm 4 Cloudy OVC003 37 36     98%     29.53        
Jan 20 01:43 Calm 4 Cloudy OVC003 37 36     98%     29.56        
Jan 20 01:23 Calm 3 Cloudy OVC003 37 36     97%     29.58        
Jan 20 01:03 Calm 2.5 Cloudy OVC005 36 36     97%     29.6        
Jan 20 00:43 Calm 2.5 Cloudy SCT003 OVC007 36 36     98%     29.62        
Jan 20 00:23 Calm 3 Cloudy SCT004 OVC009 36 35     97%     29.66        
Jan 20 00:03 Calm 4 Cloudy OVC006 36 35     97%     29.68        
Jan 19 23:43 Calm 4 Cloudy BKN004 OVC009 36 35     97%     29.67        
Jan 19 23:23 Calm 4 Cloudy SCT004 OVC008 36 35     97%     29.68        
Jan 19 23:03 Calm 3 Cloudy SCT002 BKN010 OVC014 36 35     97%     29.7        
Jan 19 22:43 Calm 2.5 Cloudy SCT004 OVC010 36 35     97%     29.71        
Jan 19 22:23 Calm 2.5 Cloudy SCT002 BKN008 OVC017 36 36     98%     29.72        
Jan 19 22:03 Calm 2 Cloudy SCT002 OVC006 36 35     97%     29.73        
Jan 19 21:43 Calm 2.5 Cloudy OVC006 36 35     96%     29.75        
Jan 19 21:23 Calm 2.5 Cloudy OVC006 36 35     96%     29.75        
Jan 19 21:03 W 7 2.5 Cloudy BKN006 OVC012 36 35     96% 30   29.78        
Jan 19 20:43 Calm 2 Cloudy OVC006 35 34     96%     29.77        
Jan 19 20:23 NW 5 2.5 Cloudy SCT006 OVC014 35 34     94% 31   29.8        
Jan 19 20:03 Calm 3 Cloudy BKN014 OVC032 36 34     93%     29.8        
Jan 19 19:43 NNE 5 4 Cloudy BKN012 BKN017 OVC035 36 34     92% 32   29.82        
Jan 19 19:23 Calm 5 Cloudy SCT012 SCT029 OVC035 36 34     90%     29.83        
Jan 19 19:03 Calm 7 Cloudy OVC035 36 33     87%     29.85        
Jan 19 18:43 E 3 7 Cloudy OVC035 36 33     89% 33   29.87        
Jan 19 18:23 ENE 5 10 Cloudy OVC037 36 32     87% 32   29.9        
Jan 19 18:03 ENE 6 10 Cloudy SCT022 OVC035 36 32     87% 31   29.91        
Jan 19 17:43 NE 5 5 Cloudy SCT020 OVC039 36 32     87% 32   29.94        
Jan 19 17:23 ENE 3 10 Cloudy OVC017 36 32     84% 33   29.96        
Jan 19 17:03 E 5 10 Cloudy OVC017 36 31     82% 32   29.98        
Jan 19 16:43 Calm 10 Cloudy OVC017 36 31     81%     29.98        
Jan 19 16:23 ENE 8 10 Cloudy OVC015 37 31     79% 31   29.98        
Jan 19 16:03 E 7 10 Cloudy OVC015 37 31     79% 31   30.02        
Jan 19 15:43 ENE 5 10 Cloudy OVC015 37 31     79% 33   30.03        
Jan 19 15:23 ENE 3 7 Cloudy OVC017 37 32     81% 35   30.03        
Jan 19 15:03 ENE 5 7 Cloudy OVC017 37 32     81% 33   30.05        
Jan 19 14:43 Calm 7 Cloudy OVC017 37 32     81%     30.07        
Jan 19 14:23 E 5 5 Cloudy SCT015 BKN021 OVC039 37 32     82% 33   30.06        
Jan 19 14:03 Calm 5 Cloudy SCT015 BKN040 OVC050 37 32     82%     30.06        
Jan 19 13:43 E 5 5 Cloudy BKN015 OVC042 37 32     82% 33   30.09        
Jan 19 13:23 E 6 5 Cloudy BKN015 BKN021 OVC050 37 32     82% 32   30.1        
Jan 19 13:03 Calm 5 Cloudy SCT015 SCT035 OVC049 37 32     81%     30.13        
Jan 19 12:43 Calm 5 Cloudy SCT015 OVC049 37 32     81%     30.15        
Jan 19 12:23 ESE 3 5 Cloudy SCT015 OVC049 37 31     81% 34   30.16        
Jan 19 12:03 ESE 3 7 Cloudy OVC049 37 31     80% 34   30.16        
Jan 19 11:43 ESE 3 7 Cloudy OVC049 36 31     80% 34   30.18        
Jan 19 11:23 ESE 7 7 Cloudy OVC049 36 31     79% 31   30.18        
Jan 19 11:03 ESE 8 7 Cloudy OVC049 37 31     79% 31   30.2        
Jan 19 10:43 Calm 7 Cloudy SCT034 SCT040 OVC049 36 31     81%     30.2        
Jan 19 10:23 E 6 7 Cloudy BKN037 OVC049 36 31     81% 32   30.21        
Jan 19 10:03 E 6 7 Cloudy OVC035 36 31     81% 32   30.22        
Jan 19 09:43 Calm 7 Cloudy OVC035 36 31     82%     30.23        
Jan 19 09:23 Calm 5 Cloudy OVC035 36 32     84%     30.21        
Jan 19 09:03 Calm 4 Cloudy OVC035 36 33     89%     30.22        
Jan 19 08:43 Calm 4 Cloudy OVC033 36 33     90%     30.21        
Jan 19 08:23 Calm 4 Cloudy OVC033 36 33     90%     30.2        
Jan 19 08:03 Calm 5 Cloudy BKN033 OVC048 36 33     90%     30.2        
Jan 19 07:43 Calm 5 Cloudy SCT033 OVC048 35 33     92%     30.2        
Jan 19 07:23 Calm 5 Cloudy BKN033 OVC048 34 32     94%     30.2        
Jan 19 07:03 Calm 5 Cloudy OVC033 33 32     96%     30.2        
Jan 19 06:43 Calm 5 Cloudy BKN031 OVC050 33 32     96%     30.2        
Jan 19 06:23 Calm 5 Cloudy BKN031 OVC050 33 32     96%     30.19        
Jan 19 06:03 Calm 7 Cloudy BKN031 OVC050 33 32     96%     30.19        
Jan 19 05:43 Calm 5 Cloudy SCT029 OVC050 33 32     96%     30.17        
Jan 19 05:23 Calm 5 Cloudy SCT029 OVC050 33 32     96%     30.18        
Jan 19 05:03 Calm 5 Cloudy OVC050 33 32     96%     30.19        
Jan 19 04:43 Calm 7 Cloudy OVC050 33 32     95%     30.19        
Jan 19 04:23 Calm 5 Cloudy OVC050 33 32     96%     30.19        
Jan 19 04:03 Calm 7 Cloudy OVC050 33 32     96%     30.19        
Jan 19 03:43 Calm 5 Cloudy OVC050 33 32     96%     30.2        
Jan 19 03:23 Calm 7 Cloudy OVC050 33 32     96%     30.2        
Jan 19 03:03 Calm 5 Cloudy OVC050 33 32     96%     30.21        
Jan 19 02:43 Calm 5 Cloudy OVC050 33 32     96%     30.2        
Jan 19 02:23 Calm 5 Cloudy OVC050 33 32     96%     30.21        
Jan 19 02:03 Calm 5 Cloudy OVC050 33 32     96%     30.21        
Jan 19 01:43 Calm 5 Cloudy OVC050 33 32     96%     30.21        
Jan 19 01:23 Calm 5 Cloudy OVC050 33 32     96%     30.21        
Jan 19 01:03 Calm 5 Cloudy OVC050 33 32     96%     30.2        
Jan 19 00:43 Calm 5 Cloudy OVC050 33 32     96%     30.19        
Jan 19 00:23 Calm 5 Cloudy OVC050 33 32     96%     30.2        
Jan 19 00:03 Calm 5 Cloudy OVC050 33 32     96%     30.2        
Jan 18 23:43 Calm 4 Cloudy OVC050 33 32     97%     30.2        
Jan 18 23:23 Calm 7 Cloudy OVC050 33 32     95%     30.2        
Jan 18 23:03 Calm 10 Mostly Cloudy BKN050 36 32     85%     30.2        
Jan 18 22:43 Calm 5 Cloudy OVC050 34 33     96%     30.2        
Jan 18 22:23 Calm 3 Cloudy OVC050 33 32     97%     30.2        
Jan 18 22:03 Calm 4 Mostly Cloudy BKN060 33 32     96%     30.2        
Jan 18 21:43 Calm 4 Cloudy OVC060 34 33     96%     30.18        
Jan 18 21:23 Calm 3 Cloudy OVC060 33 32     96%     30.19        
Jan 18 21:03 Calm 3 Cloudy OVC060 33 32     96%     30.19        
Jan 18 20:43 Calm 4 Cloudy OVC060 33 32     96%     30.18        
Jan 18 20:23 Calm 4 Cloudy OVC060 34 32     94%     30.17        
Jan 18 20:03 Calm 4 Cloudy OVC060 34 32     94%     30.18        
Jan 18 19:43 Calm 4 Cloudy OVC060 33 32     96%     30.17        
Jan 18 19:23 Calm 3 Cloudy OVC060 33 32     96%     30.16        
Jan 18 19:03 Calm 4 Cloudy SCT033 OVC060 33 32     95%     30.16        
Jan 18 18:43 Calm 4 Partly Cloudy SCT035 SCT060 34 32     94%     30.15        
Jan 18 18:23 Calm 7 Clear CLR 36 33     89%     30.14        
Jan 18 18:03 Calm 7 Clear CLR 37 34     87%     30.13        
Jan 18 17:43 Calm 7 Clear CLR 37 34     86%     30.12        
Jan 18 17:23 Calm 7 Clear CLR 38 34     84%     30.12        
Jan 18 17:03 SSE 3 7 Clear CLR 39 34     82% 37   30.11        
Jan 18 16:43 Calm 7 Clear CLR 40 34     80%     30.1        
Jan 18 16:23 Calm 7 Clear CLR 40 34     79%     30.11        
Jan 18 16:03 SSE 6 7 Clear CLR 40 34     78% 36   30.1        
Jan 18 15:43 Calm 7 Clear CLR 41 34     77%     30.09        
Jan 18 15:23 Calm 7 Clear CLR 40 34     78%     30.09        
Jan 18 15:03 Calm 7 Partly Cloudy SCT017 40 33     77%     30.09        
Jan 18 14:43 Calm 7 Mostly Cloudy BKN017 40 34     80%     30.08        
Jan 18 14:23 Calm 7 Partly Cloudy SCT013 39 33     78%     30.08        
Jan 18 14:03 Calm 7 Partly Cloudy SCT013 SCT055 39 33     78%     30.07        
Jan 18 13:43 Calm 10 Partly Cloudy SCT011 SCT055 38 32     79%     30.07        
Jan 18 13:23 Calm 7 Cloudy OVC011 37 32     81%     30.08        
Jan 18 13:03 Calm 7 Cloudy OVC009 37 32     83%     30.09        
Jan 18 12:43 Calm 7 Cloudy OVC009 36 32     84%     30.1        
Jan 18 12:23 Calm 7 Cloudy OVC009 36 32     84%     30.11        
Jan 18 12:03 Calm 5 Cloudy OVC009 36 32     86%     30.11        
Jan 18 11:43 Calm 5 Cloudy OVC007 35 32     87%     30.12        
Jan 18 11:23 Calm 5 Cloudy OVC007 35 32     89%     30.13        
Jan 18 11:03 Calm 5 Cloudy OVC007 35 32     90%     30.13        
Jan 18 10:43 Calm 3 Cloudy OVC007 34 32     93%     30.13        
Jan 18 10:23 Calm 3 Cloudy OVC009 33 32     94%     30.12        
Jan 18 10:03 Calm 2.5 Cloudy SCT005 OVC011 33 31     94%     30.12        
Jan 18 09:43 Calm 2.5 Cloudy BKN003 OVC011 32 31     96%     30.11        
Jan 18 09:23 Calm 2 Cloudy OVC003 32 31     97%     30.1        
Jan 18 09:03 Calm 2 Cloudy BKN003 OVC007 32 31     96%     30.1        
Jan 18 08:43 Calm 2 Cloudy OVC004 32 31     96%     30.1        
Jan 18 08:23 Calm 2 Cloudy OVC004 32 31     96%     30.09        
Jan 18 08:03 Calm 1.75 Cloudy OVC004 31 31     97%     30.09        
Jan 18 07:43 Calm 2.5 Cloudy OVC004 31 31     96%     30.09        
Jan 18 07:23 Calm 2.5 Cloudy OVC004 31 31     98%     30.09        
Jan 18 07:03 Calm 2.5 Cloudy OVC004 31 30     97%     30.07        
Jan 18 06:43 Calm 2.5 Cloudy OVC004 31 30     96%     30.08        
Jan 18 06:23 Calm 2.5 Cloudy OVC004 31 30     97%     30.08        
Jan 18 06:03 Calm 2 Cloudy OVC006 31 30     96%     30.07        
Jan 18 05:43 Calm 2 Cloudy OVC006 31 30     96%     30.08        
Jan 18 05:23 Calm 2 Cloudy OVC006 31 30     96%     30.08        
Jan 18 05:03 Calm 4 Cloudy OVC006 31 30     94%     30.07        
Jan 18 04:43 Calm 5 Cloudy OVC006 31 30     94%     30.07        
May 15 12:37 S 5 10 Clear CLR 81 69     67%   84 29.91        
May 15 03:17 Calm 10 Clear CLR 65 62     90%     29.95        
May 14 13:37 Calm 7 Partly Cloudy SCT016 72 64     77%   72 30.02        
May 14 12:57 Calm 7 Mostly Cloudy BKN012 69 62     79%     30.02        
May 14 11:17 Calm 5 Cloudy OVC006 63 60     89%     30.03        
May 14 07:57 Calm 1.25 Cloudy OVC002 59 58     98%     30.03        
May 14 04:17 Calm 2.5 Cloudy OVC004 59 58     97%     29.98        
May 14 03:37 Calm 5 Cloudy OVC006 59 58     96%     29.97        
May 14 01:37 Calm 7 Cloudy OVC008 60 58     96%     30.02        
May 13 21:37 N 3 7 Cloudy OVC006 60 58     93%     30.05        
May 13 18:37 ESE 5 7 Cloudy OVC006 60 57     91%     30.02        
May 13 15:17 E 9 2.5 Cloudy OVC004 60 59     95%     30.06        
May 13 12:17 Calm 10 Cloudy BKN008 OVC013 67 63     89%     30.08        
May 12 21:57 Calm 7 Clear CLR 67 64     88%     30.03        
Notice The following observation data may not be complete
May 12 16:37   10 Clear CLR          %              
May 12 12:57 Calm 10 Clear CLR 79 63     59%   79 30.02        
May 12 01:17 Calm 10 Clear CLR 62 55     79%     30.04        
May 11 22:57 Calm 10 Partly Cloudy SCT100 62 56     80%     30.08        
May 11 22:17 Calm 10 Clear CLR 65 56     74%     30.07        
Notice The following observation data may not be complete
May 11 21:17 Calm 10 Clear CLR   54      %     30.05        
May 11 10:17 NW 8 10 Clear CLR 74 55     51%   74 30.02        
Notice The following observation data may not be complete
Jun 12 06:33   10 Mostly Cloudy BKN080          %              
Jun 12 03:33 Calm 10 Clear CLR 68 65     91%     30.05        
Notice The following observation data may not be complete
Jun 12 02:33 Calm 10 Clear CLR   67      %     30.05        
Jun 11 22:53 Calm 10 Clear CLR 75 65     72%   76 30.07        
Notice The following observation data may not be complete
Jun 11 21:13   10 Clear CLR          %              
Jun 11 06:13 Calm 10 Clear CLR 64 62     91%     30.1        
Notice The following observation data may not be complete
Jun 11 02:13   10 Clear CLR          %              
Notice The following observation data may not be complete
Jun 11 01:33 Calm 10 Clear CLR   61      %     30.07        
Jun 11 01:13 Calm 10 Clear CLR 69 61     77%     30.07        
Notice The following observation data may not be complete
Jun 11 00:13 Calm 10 Clear CLR   61      %     30.07        
Jun 10 22:33 Calm 10 Clear CLR 71 62     71%   72 30.07        
Notice The following observation data may not be complete
Jun 10 12:33   10 Clear CLR          %              
Jun 10 11:33 S 3 10 Clear CLR 82 53     36%   81 30.05        
Jun 10 09:33 Calm 10 Clear CLR 74 59     59%   74 30.04        
Notice The following observation data may not be complete
Jun 10 04:33 Calm 10 Clear CLR   56      %     29.98        
Jun 09 21:33 Calm 10 Clear CLR 67 54     62%     29.92        
Jun 09 17:33 WSW 5 10 Partly Cloudy SCT075 80 51     35%   80 29.84        
Jun 09 13:53 WNW 9 10 Partly Cloudy SCT065 SCT080 79 52     39%   78 29.85        
Notice The following observation data may not be complete
Jun 09 13:33   10 Mostly Cloudy BKN065          %              
Jun 09 12:53 WNW 9 10 Partly Cloudy SCT060 SCT070 77 52     41%   77 29.86        
Jun 09 09:53 WNW 9 10 Clear CLR 71 54     55%   70 29.85        
Notice The following observation data may not be complete
Jun 09 07:33   10 Clear CLR          %              
Jun 09 00:53 Calm 10 Clear CLR 54 51     90%     29.83        
Jun 08 15:53 N 5 10 Mostly Cloudy BKN075 72 47     42%   71 29.9        
Jun 08 14:53 NNE 7 10 Clear CLR 71 44     38%   70 29.92        
Jun 08 12:53 NE 8 10 Clear CLR 68 49     50%     29.96        
Jun 08 01:53 Calm 10 Clear CLR 51 50     97%     30.04        
Jun 07 22:53 Calm 10 Clear CLR 54 52     93%     30.05        
Jun 07 22:13 Calm 10 Clear CLR 54 52     92%     30.04        
Jun 07 11:53 NE 3 10 Cloudy SCT016 BKN023 OVC070 62 54     76%     29.99        
Jun 07 11:33 E 8 10 Cloudy BKN018 BKN023 OVC060 62 54     75%     29.98        
Jun 06 11:13 NW 9 10 Partly Cloudy SCT047 72 53     51%   71 29.76        
Notice The following observation data may not be complete
Jun 06 10:33   10 Clear CLR          %              
Jun 06 08:13 NNW 11 10 Partly Cloudy SCT025 69 59     71%     29.74        
Jun 06 07:13 NNW 6 10 Clear CLR 66 59     78%     29.72        
Notice The following observation data may not be complete
Jun 06 03:33   2.5 Mostly Cloudy BKN048          %              
Jun 06 00:13 Calm 3 Partly Cloudy SCT065 64 64     98%     29.68        
Notice The following observation data may not be complete
Jun 05 23:33   7 Clear CLR          %